This is the latest recevied weather packets stored in our database for station/object UR7D-12. If no packets are shown the sender has not sent any weather packets the latest 1 day(s).
| Time | Temp. | Humidity | Pressure | Rain* | Wind** | Luminosity | Snow |
|---|---|---|---|---|---|---|---|
| 1777968073 | 18.89° C | 47% | 990.1 hPa | 0 mm | 2.68 m/s, 75° | - | - |
| 1777967471 | 18.33° C | 49% | 990.2 hPa | 0 mm | 3.13 m/s, 80° | - | - |
| 1777966871 | 17.78° C | 50% | 990.1 hPa | 0 mm | 2.68 m/s, 110° | - | - |
| 1777965970 | 17.22° C | 53% | 990.1 hPa | 0 mm | 3.13 m/s, 87° | - | - |
| 1777965070 | 16.67° C | 52% | 990.1 hPa | 0 mm | 4.47 m/s, 98° | - | - |
| 1777964769 | 16.11° C | 55% | 990.2 hPa | 0 mm | 4.47 m/s, 98° | - | - |
| 1777964468 | 16.11° C | 54% | 990.1 hPa | 0 mm | 4.02 m/s, 93° | - | - |
| 1777964170 | 16.11° C | 54% | 990.1 hPa | 0 mm | 4.02 m/s, 99° | - | - |
| 1777963570 | 16.11° C | 56% | 990 hPa | 0 mm | 4.02 m/s, 105° | - | - |
| 1777963267 | 15.56° C | 55% | 990 hPa | 0 mm | 3.58 m/s, 105° | - | - |
| 1777962967 | 15.56° C | 56% | 990.1 hPa | 0 mm | 3.13 m/s, 91° | - | - |
| 1777962667 | 15.56° C | 57% | 990.3 hPa | 0 mm | 3.13 m/s, 120° | - | - |
| 1777962367 | 15° C | 58% | 990.2 hPa | 0 mm | 3.13 m/s, 110° | - | - |
| 1777962066 | 15° C | 59% | 990.3 hPa | 0 mm | 3.13 m/s, 120° | - | - |
| 1777961766 | 14.44° C | 60% | 990.4 hPa | 0 mm | 3.13 m/s, 106° | - | - |
| 1777961466 | 14.44° C | 60% | 990.4 hPa | 0 mm | 3.13 m/s, 109° | - | - |
| 1777961165 | 13.89° C | 62% | 990.2 hPa | 0 mm | 3.13 m/s, 127° | - | - |
| 1777960865 | 13.89° C | 63% | 990.2 hPa | 0 mm | 3.58 m/s, 92° | - | - |
| 1777960565 | 13.33° C | 63% | 990.2 hPa | 0 mm | 3.58 m/s, 100° | - | - |
| 1777960265 | 13.33° C | 63% | 990.1 hPa | 0 mm | 4.02 m/s, 118° | - | - |
| 1777959964 | 13.33° C | 63% | 990 hPa | 0 mm | 4.02 m/s, 100° | - | - |
| 1777959664 | 12.78° C | 64% | 990.1 hPa | 0 mm | 3.58 m/s, 99° | - | - |
| 1777959364 | 12.78° C | 65% | 990 hPa | 0 mm | 3.58 m/s, 113° | - | - |
| 1777959063 | 12.78° C | 66% | 990 hPa | 0 mm | 4.02 m/s, 99° | - | - |
| 1777958763 | 12.22° C | 66% | 990 hPa | 0 mm | 4.47 m/s, 115° | - | - |
* Rain latest hour (hover to see other rain measurements)
** Current wind speed in m/s (hover to see current wind gust speed)